Preview of NWS' New Version of Forecast
This preview is not operational and should not be used for support decisions.

Regional Weather Roundup (RWR)

Issued by National Weather Service (NWS)

                            
000
ASPQ40 PGUM 242110
RWRPQ 
WEATHER ROUNDUP FOR THE MARIANAS AND MICRONESIA
NATIONAL WEATHER SERVICE TIYAN GU
700 AM CHST TUE JUN 25 2019

GUZ001>004-242200-
MARIANA ISLANDS-
  
CITY           SKY/WX    TMP DP  RH WIND       PRES   REMARKS
GUAM AIRPORT   SUNNY     81  75  83 E7        29.93R                  
ANDERSEN AFB   PTSUNNY   81  73  78 E12       29.94R                  
ROTA AIRPORT   PTSUNNY   79  73  83 E16       29.93R                  
TINIAN AP      PTSUNNY   82  75  78 E8        29.93R                  
SAIPAN AP      MOSUNNY   82  75  78 E9        29.94R                  

$$

PMZ161-242200-
REPUBLIC OF PALAU-
  
CITY           SKY/WX    TMP DP  RH WIND       PRES   REMARKS
KOROR AP       MOCLDY    79  75  89 NW5       29.84S                  
KOROR WSO      NOT AVBL                                               

$$

PMZ171>174-242200-
FEDERATED STATES OF MICRONESIA-
  
CITY           SKY/WX    TMP DP  RH WIND       PRES   REMARKS
YAP AIRPORT    MOCLDY    79  77  94 CALM      29.84R                  
CHUUK AP       CLOUDY    79  77  94 VRB6      29.85R                  
POHNPEI AP     NOT AVBL                                               
POHNPEI WSO    CLOUDY    79  79 100 E3        29.89R                  
KOSRAE AP      CLOUDY    81  77  89 SE7       29.84                   

$$

PMZ181-242200-
REPUBLIC OF THE MARSHALL ISLANDS-
  
CITY           SKY/WX    TMP DP  RH WIND       PRES   REMARKS
KWAJALEIN AP   PTSUNNY   82  81  94 SE15      29.90R HX  95           
MAJURO AP      NOT AVBL                                               
MAJURO WSO     PTSUNNY   82  77  83 E5        29.87S HX  91           

$$